Hourly Weather Bolshie Rogi

Today, 20 June, Sunday

Time Temperature Precipitation Wind Pressure Humidity
00:00 +20°C° 0 mm 3 mps 754 mmHg 94%
01:00 +20°C° 0 mm 3 mps 754 mmHg 94%
02:00 +19°C° 0 mm 2 mps 754 mmHg 95%
03:00 +19°C° 0 mm 2 mps 754 mmHg 95%
04:00 +19°C° 0 mm 2 mps 753 mmHg 95%
05:00 +19°C° 0 mm 2 mps 753 mmHg 95%
06:00 +21°C° 0 mm 3 mps 753 mmHg 88%
07:00 +22°C° 0 mm 3 mps 753 mmHg 81%
08:00 +25°C° 0 mm 4 mps 753 mmHg 74%
09:00 +25°C° 0 mm 4 mps 753 mmHg 70%
10:00 +26°C° 0 mm 4 mps 753 mmHg 66%
11:00 +27°C° 0 mm 4 mps 753 mmHg 62%
12:00 +28°C° 0 mm 4 mps 753 mmHg 60%
13:00 +28°C° 0 mm 5 mps 753 mmHg 59%
14:00 +29°C° 0 mm 5 mps 752 mmHg 58%
15:00 +28°C° 0 mm 5 mps 752 mmHg 61%
16:00 +28°C° 0 mm 5 mps 752 mmHg 64%
17:00 +28°C° 0 mm 5 mps 752 mmHg 67%
18:00 +26°C° 0 mm 4 mps 752 mmHg 73%
19:00 +25°C° 0 mm 4 mps 751 mmHg 78%
20:00 +22°C° 0 mm 3 mps 751 mmHg 83%
21:00 +21°C° 0 mm 3 mps 751 mmHg 86%
22:00 +21°C° 0 mm 3 mps 751 mmHg 88%
23:00 +20°C° 0 mm 3 mps 751 mmHg 90%

Tomorrow, 21 June, Monday

Time Temperature Precipitation Wind Pressure Humidity
00:00 +19°C° 0 mm 3 mps 751 mmHg 91%
01:00 +19°C° 0 mm 3 mps 751 mmHg 92%
02:00 +19°C° 0 mm 3 mps 751 mmHg 93%
03:00 +19°C° 0 mm 3 mps 751 mmHg 92%
04:00 +19°C° 0 mm 3 mps 751 mmHg 91%
05:00 +19°C° 0 mm 3 mps 751 mmHg 89%
06:00 +20°C° 0 mm 4 mps 751 mmHg 84%
07:00 +22°C° 0 mm 4 mps 751 mmHg 78%
08:00 +23°C° 0 mm 5 mps 751 mmHg 73%
09:00 +25°C° 0 mm 5 mps 751 mmHg 68%
10:00 +27°C° 0 mm 5 mps 750 mmHg 63%
11:00 +28°C° 0 mm 5 mps 750 mmHg 57%
12:00 +29°C° 0 mm 5 mps 750 mmHg 56%
13:00 +29°C° 0 mm 6 mps 750 mmHg 55%
14:00 +30°C° 0 mm 6 mps 749 mmHg 54%
15:00 +30°C° 0 mm 5 mps 749 mmHg 58%
16:00 +30°C° 0 mm 5 mps 749 mmHg 61%
17:00 +29°C° 0 mm 5 mps 749 mmHg 64%
18:00 +28°C° 0 mm 4 mps 749 mmHg 70%
19:00 +26°C° 0 mm 4 mps 749 mmHg 76%
20:00 +24°C° 0 mm 3 mps 749 mmHg 82%
21:00 +24°C° 0 mm 3 mps 749 mmHg 86%
22:00 +22°C° 0 mm 3 mps 749 mmHg 89%
23:00 +21°C° 0 mm 3 mps 749 mmHg 92%

Day after tomorrow, 22 June, Tuesday

Time Temperature Precipitation Wind Pressure Humidity
00:00 +21°C° 0 mm 3 mps 749 mmHg 93%
01:00 +20°C° 0 mm 3 mps 749 mmHg 95%
02:00 +20°C° 0 mm 3 mps 749 mmHg 96%
03:00 +20°C° 0 mm 3 mps 749 mmHg 95%
04:00 +20°C° 0 mm 3 mps 750 mmHg 95%
05:00 +20°C° 0 mm 2 mps 750 mmHg 94%
06:00 +22°C° 0 mm 3 mps 750 mmHg 87%
07:00 +24°C° 0 mm 3 mps 750 mmHg 81%
08:00 +26°C° 0 mm 3 mps 750 mmHg 74%
09:00 +27°C° 0 mm 4 mps 750 mmHg 68%
10:00 +29°C° 0 mm 4 mps 750 mmHg 63%
11:00 +30°C° 0 mm 4 mps 750 mmHg 58%
12:00 +30°C° 0 mm 4 mps 750 mmHg 55%
13:00 +32°C° 0 mm 4 mps 750 mmHg 53%
14:00 +33°C° 0 mm 4 mps 750 mmHg 50%
15:00 +32°C° 0 mm 4 mps 750 mmHg 53%
16:00 +32°C° 0 mm 4 mps 749 mmHg 56%
17:00 +30°C° 0 mm 4 mps 749 mmHg 59%
18:00 +28°C° 0 mm 4 mps 750 mmHg 66%
19:00 +27°C° 0 mm 4 mps 750 mmHg 72%
20:00 +25°C° 0 mm 3 mps 750 mmHg 79%
21:00 +24°C° 0 mm 3 mps 750 mmHg 82%
22:00 +22°C° 0 mm 3 mps 750 mmHg 84%
23:00 +21°C° 0 mm 3 mps 751 mmHg 87%

23 June, Wednesday

Time Temperature Precipitation Wind Pressure Humidity
00:00 +20°C° 0 mm 3 mps 750 mmHg 89%
01:00 +20°C° 0 mm 3 mps 750 mmHg 91%
02:00 +20°C° 0 mm 2 mps 750 mmHg 93%
03:00 +20°C° 0 mm 2 mps 751 mmHg 93%
04:00 +20°C° 0 mm 2 mps 751 mmHg 93%
05:00 +21°C° 0 mm 2 mps 751 mmHg 93%
06:00 +22°C° 0 mm 3 mps 751 mmHg 87%
07:00 +25°C° 0 mm 3 mps 751 mmHg 80%
08:00 +27°C° 0 mm 3 mps 751 mmHg 73%
09:00 +29°C° 0 mm 3 mps 751 mmHg 68%
10:00 +30°C° 0 mm 4 mps 751 mmHg 62%
11:00 +32°C° 0 mm 4 mps 751 mmHg 57%
12:00 +33°C° 0 mm 4 mps 751 mmHg 54%
13:00 +34°C° 0 mm 4 mps 751 mmHg 51%
14:00 +34°C° 0 mm 4 mps 751 mmHg 48%
15:00 +34°C° 0 mm 4 mps 751 mmHg 52%
16:00 +34°C° 0 mm 4 mps 751 mmHg 55%
17:00 +33°C° 0 mm 4 mps 751 mmHg 59%
18:00 +32°C° 0 mm 4 mps 751 mmHg 67%
19:00 +29°C° 0 mm 3 mps 751 mmHg 74%
20:00 +27°C° 0 mm 3 mps 751 mmHg 82%
21:00 +26°C° 0 mm 3 mps 751 mmHg 84%
22:00 +25°C° 0 mm 3 mps 751 mmHg 87%
23:00 +24°C° 0 mm 3 mps 751 mmHg 89%

24 June, Thursday

Time Temperature Precipitation Wind Pressure Humidity
00:00 +23°C° 0 mm 2 mps 751 mmHg 90%
01:00 +23°C° 0 mm 2 mps 752 mmHg 91%
02:00 +21°C° 0 mm 2 mps 752 mmHg 93%
03:00 +21°C° 0 mm 2 mps 752 mmHg 93%
04:00 +23°C° 0 mm 2 mps 752 mmHg 92%
05:00 +23°C° 0 mm 2 mps 752 mmHg 92%
06:00 +24°C° 0 mm 2 mps 752 mmHg 86%
07:00 +26°C° 0 mm 3 mps 752 mmHg 79%
08:00 +28°C° 0 mm 3 mps 752 mmHg 73%
09:00 +29°C° 0 mm 3 mps 752 mmHg 67%
10:00 +30°C° 0 mm 3 mps 752 mmHg 62%
11:00 +31°C° 0 mm 3 mps 752 mmHg 56%
12:00 +33°C° 0 mm 3 mps 752 mmHg 53%
13:00 +34°C° 0 mm 3 mps 752 mmHg 50%
14:00 +34°C° 0 mm 3 mps 752 mmHg 47%
15:00 +34°C° 0 mm 3 mps 752 mmHg 49%
16:00 +34°C° 0 mm 3 mps 752 mmHg 52%
17:00 +34°C° 0 mm 3 mps 752 mmHg 54%
18:00 +31°C° 0 mm 3 mps 751 mmHg 61%
19:00 +29°C° 0 mm 2 mps 751 mmHg 68%
20:00 +27°C° 0 mm 2 mps 751 mmHg 75%
21:00 +26°C° 0.1 mm 2 mps 751 mmHg 78%
22:00 +25°C° 0.1 mm 2 mps 751 mmHg 81%
23:00 +24°C° 0.1 mm 2 mps 751 mmHg 84%

25 June, Friday

Time Temperature Precipitation Wind Pressure Humidity
00:00 +24°C° 0 mm 2 mps 751 mmHg 86%
01:00 +24°C° 0 mm 3 mps 751 mmHg 88%
02:00 +22°C° 0 mm 3 mps 751 mmHg 90%
03:00 +23°C° 0 mm 2 mps 751 mmHg 90%
04:00 +23°C° 0 mm 2 mps 751 mmHg 90%
05:00 +23°C° 0 mm 2 mps 751 mmHg 90%
06:00 +25°C° 0 mm 3 mps 751 mmHg 84%
07:00 +26°C° 0 mm 3 mps 751 mmHg 78%
08:00 +28°C° 0 mm 3 mps 751 mmHg 73%
09:00 +29°C° 0 mm 3 mps 751 mmHg 66%
10:00 +32°C° 0 mm 4 mps 751 mmHg 60%
11:00 +33°C° 0 mm 4 mps 751 mmHg 53%
12:00 +33°C° 0 mm 4 mps 751 mmHg 52%
13:00 +34°C° 0 mm 4 mps 751 mmHg 52%
14:00 +34°C° 0 mm 4 mps 751 mmHg 51%
15:00 +34°C° 0 mm 3 mps 750 mmHg 54%
16:00 +33°C° 0 mm 3 mps 750 mmHg 58%
17:00 +33°C° 0 mm 3 mps 750 mmHg 61%
18:00 +30°C° 0 mm 3 mps 749 mmHg 66%
19:00 +28°C° 0 mm 3 mps 749 mmHg 71%
20:00 +27°C° 0 mm 3 mps 749 mmHg 76%
21:00 +26°C° 0 mm 3 mps 749 mmHg 79%
22:00 +25°C° 0 mm 3 mps 749 mmHg 81%
23:00 +24°C° 0 mm 2 mps 750 mmHg 84%
Show more